Location: K?saraneniv?rip?lem
(16.3400°N, 80.7222°E)
Time: 04:59:54
(UTC+00:00)

Daily predictions for brighter satellites

Satellite Brightness Start Highest point End
(mag) Time Altitude Azimuth Time Altitude Azimuth Time Altitude Azimuth
Cosmos 1892 Rocket 4.1 00:00:36 10° SSW 00:04:31 33° W 00:08:26 10° NNW
Stardust Del rocket 3.0 00:04:28 10° W 00:07:15 75° NNW 00:12:13 10° ENE
Cosmos 2058 Rocket 4.3 00:03:58 10° N 00:08:17 48° E 00:12:32 10° SSE
Spot 2 4.4 00:04:21 10° N 00:09:05 79° WNW 00:14:04 10° SSW
Meteor PRIRODA 4.4 00:06:37 10° NNW 00:09:52 31° WNW 00:13:08 10° SW
GPS 2-17 Rocket1 3.1 00:07:16 10° WNW 00:11:53 80° NNE 00:16:37 10° E
CZ-4B R/B 2.6 00:10:09 10° SSW 00:13:02 25° W 00:15:56 10° NW
PSLV R/B 3.9 00:10:06 10° N 00:14:11 75° W 00:18:13 10° SSW
Orbus 7S 4.4 00:09:12 10° WNW 00:14:18 42° NNE 00:16:52 10° E
Delta 128 4.0 00:09:55 10° WNW 00:14:25 63° NNE 00:19:25 10° ESE
USA 267 3.7 00:10:12 10° NE 00:16:42 70° SE 00:23:12 10° SSW
H-II Stage 2 3.7 00:11:07 10° SW 00:16:48 27° SSE 00:19:10 10° ESE
Cosmos 1980 Rocket 4.0 00:12:05 10° N 00:17:08 34° ENE 00:22:11 10° SE
Sakura Rocket 4.2 00:12:18 10° WSW 00:20:03 76° SSE 00:25:30 10° ENE
CZ-3 R/B 3.2 00:18:53 10° WNW 00:36:10 39° NNW 00:41:44 10° ENE
